When you browse on this site, cookies collect data to enhance your experience and personalize the content and advertising you see.
Visit our Privacy Policy to learn more. By continuing to use the site, you agree to this use of cookies and data.
  • In Romania
  • List of Countries
  • For 7 days
  • Water Temperature
  • Satellite Maps
  • Weather Map
  • Weather Widgets
  • user-avatar
    Login

    Hourly Weather Marignane

    Today, 19 June, Wednesday

    Time Temperature Precipitation Wind Pressure Humidity
    00:00 +24°C° 0 mm 1 mps 759 mmHg 51%
    01:00 +24°C° 0 mm 2 mps 759 mmHg 51%
    02:00 +24°C° 0 mm 2 mps 759 mmHg 50%
    03:00 +23°C° 0 mm 2 mps 758 mmHg 50%
    04:00 +24°C° 0 mm 2 mps 759 mmHg 49%
    05:00 +24°C° 0 mm 3 mps 759 mmHg 47%
    06:00 +25°C° 0 mm 2 mps 759 mmHg 45%
    07:00 +26°C° 0 mm 3 mps 759 mmHg 44%
    08:00 +27°C° 0 mm 4 mps 759 mmHg 42%
    09:00 +27°C° 0 mm 4 mps 759 mmHg 41%
    10:00 +28°C° 0 mm 5 mps 759 mmHg 40%
    11:00 +28°C° 0 mm 5 mps 759 mmHg 38%
    12:00 +29°C° 0 mm 4 mps 759 mmHg 36%
    13:00 +29°C° 0 mm 4 mps 759 mmHg 36%
    14:00 +29°C° 0 mm 4 mps 758 mmHg 35%
    15:00 +29°C° 0 mm 5 mps 758 mmHg 35%
    16:00 +28°C° 0 mm 4 mps 758 mmHg 39%
    17:00 +27°C° 0 mm 4 mps 758 mmHg 43%
    18:00 +26°C° 0 mm 3 mps 758 mmHg 47%
    19:00 +25°C° 0 mm 2 mps 758 mmHg 49%
    20:00 +24°C° 0 mm 2 mps 759 mmHg 52%
    21:00 +24°C° 0 mm 1 mps 759 mmHg 54%
    22:00 +24°C° 0 mm 1 mps 759 mmHg 55%
    23:00 +21°C° 0 mm 0 mps 759 mmHg 56%

    Tomorrow, 20 June, Thursday

    Time Temperature Precipitation Wind Pressure Humidity
    00:00 +21°C° 0 mm 0 mps 759 mmHg 56%
    01:00 +23°C° 0 mm 1 mps 759 mmHg 57%
    02:00 +21°C° 0 mm 2 mps 759 mmHg 58%
    03:00 +21°C° 0 mm 2 mps 758 mmHg 59%
    04:00 +23°C° 0 mm 2 mps 758 mmHg 56%
    05:00 +23°C° 0 mm 2 mps 759 mmHg 53%
    06:00 +24°C° 0 mm 1 mps 759 mmHg 50%
    07:00 +25°C° 0 mm 2 mps 759 mmHg 47%
    08:00 +26°C° 0 mm 2 mps 759 mmHg 44%
    09:00 +27°C° 0 mm 3 mps 759 mmHg 41%
    10:00 +29°C° 0 mm 3 mps 759 mmHg 39%
    11:00 +30°C° 0 mm 3 mps 759 mmHg 38%
    12:00 +31°C° 0 mm 3 mps 759 mmHg 37%
    13:00 +32°C° 0 mm 4 mps 758 mmHg 37%
    14:00 +33°C° 0 mm 4 mps 758 mmHg 37%
    15:00 +33°C° 0 mm 4 mps 758 mmHg 37%
    16:00 +32°C° 0 mm 4 mps 758 mmHg 40%
    17:00 +30°C° 0 mm 3 mps 758 mmHg 44%
    18:00 +29°C° 0 mm 3 mps 759 mmHg 48%
    19:00 +28°C° 0 mm 3 mps 759 mmHg 51%
    20:00 +27°C° 0 mm 3 mps 759 mmHg 53%
    21:00 +27°C° 0 mm 3 mps 759 mmHg 56%
    22:00 +26°C° 0 mm 3 mps 759 mmHg 59%
    23:00 +26°C° 0 mm 3 mps 759 mmHg 62%

    Day after tomorrow, 21 June, Friday

    Time Temperature Precipitation Wind Pressure Humidity
    00:00 +25°C° 0 mm 2 mps 759 mmHg 64%
    01:00 +25°C° 0 mm 2 mps 759 mmHg 65%
    02:00 +25°C° 0 mm 2 mps 759 mmHg 65%
    03:00 +24°C° 0 mm 2 mps 759 mmHg 66%
    04:00 +25°C° 0 mm 2 mps 759 mmHg 65%
    05:00 +25°C° 0 mm 2 mps 759 mmHg 64%
    06:00 +25°C° 0 mm 2 mps 759 mmHg 64%
    07:00 +26°C° 0 mm 2 mps 759 mmHg 60%
    08:00 +27°C° 0 mm 2 mps 759 mmHg 57%
    09:00 +28°C° 0 mm 2 mps 760 mmHg 54%
    10:00 +28°C° 0 mm 3 mps 759 mmHg 53%
    11:00 +29°C° 0 mm 4 mps 759 mmHg 52%
    12:00 +29°C° 0 mm 4 mps 759 mmHg 51%
    13:00 +29°C° 0 mm 4 mps 759 mmHg 53%
    14:00 +28°C° 0 mm 5 mps 759 mmHg 55%
    15:00 +28°C° 0 mm 5 mps 759 mmHg 57%
    16:00 +28°C° 0 mm 4 mps 759 mmHg 59%
    17:00 +27°C° 0 mm 3 mps 759 mmHg 61%
    18:00 +26°C° 0 mm 2 mps 759 mmHg 63%
    19:00 +26°C° 0 mm 2 mps 759 mmHg 65%
    20:00 +25°C° 0 mm 1 mps 760 mmHg 68%
    21:00 +25°C° 0 mm 1 mps 760 mmHg 70%
    22:00 +24°C° 0 mm 1 mps 760 mmHg 71%
    23:00 +24°C° 0 mm 1 mps 760 mmHg 71%

    22 June, Saturday

    Time Temperature Precipitation Wind Pressure Humidity
    00:00 +24°C° 0 mm 1 mps 760 mmHg 72%
    01:00 +24°C° 0 mm 1 mps 759 mmHg 73%
    02:00 +23°C° 0 mm 2 mps 759 mmHg 74%
    03:00 +22°C° 0 mm 3 mps 759 mmHg 75%
    04:00 +22°C° 0 mm 3 mps 759 mmHg 74%
    05:00 +22°C° 0 mm 3 mps 759 mmHg 72%
    06:00 +24°C° 0 mm 3 mps 759 mmHg 71%
    07:00 +25°C° 0 mm 3 mps 759 mmHg 64%
    08:00 +27°C° 0 mm 3 mps 759 mmHg 57%
    09:00 +28°C° 0 mm 4 mps 759 mmHg 49%
    10:00 +29°C° 0 mm 4 mps 759 mmHg 45%
    11:00 +30°C° 0 mm 5 mps 759 mmHg 41%
    12:00 +32°C° 0 mm 5 mps 759 mmHg 36%
    13:00 +32°C° 0 mm 5 mps 759 mmHg 36%
    14:00 +32°C° 0 mm 5 mps 759 mmHg 35%
    15:00 +32°C° 0 mm 5 mps 758 mmHg 35%
    16:00 +32°C° 0 mm 5 mps 758 mmHg 37%
    17:00 +30°C° 0 mm 5 mps 758 mmHg 39%
    18:00 +30°C° 0 mm 4 mps 758 mmHg 41%
    19:00 +29°C° 0 mm 4 mps 759 mmHg 44%
    20:00 +28°C° 0 mm 5 mps 759 mmHg 47%
    21:00 +27°C° 0 mm 5 mps 759 mmHg 50%
    22:00 +26°C° 0 mm 4 mps 759 mmHg 54%
    23:00 +26°C° 0 mm 4 mps 759 mmHg 58%

    23 June, Sunday

    Time Temperature Precipitation Wind Pressure Humidity
    00:00 +25°C° 0 mm 3 mps 759 mmHg 62%
    01:00 +24°C° 0 mm 3 mps 759 mmHg 64%
    02:00 +24°C° 0 mm 2 mps 759 mmHg 65%
    03:00 +24°C° 0 mm 2 mps 759 mmHg 66%
    04:00 +24°C° 0 mm 2 mps 759 mmHg 64%
    05:00 +24°C° 0 mm 1 mps 759 mmHg 61%
    06:00 +25°C° 0 mm 1 mps 759 mmHg 59%
    07:00 +27°C° 0 mm 1 mps 760 mmHg 53%
    08:00 +28°C° 0 mm 1 mps 760 mmHg 46%
    09:00 +28°C° 0 mm 0 mps 760 mmHg 40%
    10:00 +31°C° 0 mm 1 mps 760 mmHg 37%
    11:00 +32°C° 0 mm 2 mps 760 mmHg 35%
    12:00 +34°C° 0 mm 2 mps 760 mmHg 32%
    13:00 +34°C° 0 mm 3 mps 760 mmHg 32%
    14:00 +34°C° 0 mm 4 mps 760 mmHg 33%
    15:00 +33°C° 0 mm 4 mps 760 mmHg 34%
    16:00 +32°C° 0 mm 4 mps 760 mmHg 38%
    17:00 +30°C° 0 mm 3 mps 760 mmHg 43%
    18:00 +28°C° 0 mm 3 mps 760 mmHg 48%
    19:00 +28°C° 0 mm 2 mps 760 mmHg 49%
    20:00 +27°C° 0 mm 1 mps 761 mmHg 51%
    21:00 +24°C° 0 mm 0 mps 761 mmHg 52%
    22:00 +26°C° 0 mm 1 mps 761 mmHg 52%
    23:00 +26°C° 0 mm 1 mps 761 mmHg 52%

    24 June, Monday

    Time Temperature Precipitation Wind Pressure Humidity
    00:00 +26°C° 0 mm 2 mps 761 mmHg 52%
    01:00 +26°C° 0 mm 1 mps 761 mmHg 54%
    02:00 +25°C° 0 mm 1 mps 761 mmHg 55%
    03:00 +25°C° 0 mm 1 mps 761 mmHg 57%
    04:00 +25°C° 0 mm 1 mps 761 mmHg 55%
    05:00 +26°C° 0 mm 1 mps 762 mmHg 54%
    06:00 +26°C° 0 mm 2 mps 762 mmHg 52%
    07:00 +28°C° 0 mm 2 mps 762 mmHg 48%
    08:00 +29°C° 0 mm 2 mps 762 mmHg 44%
    09:00 +31°C° 0 mm 2 mps 762 mmHg 40%
    10:00 +33°C° 0 mm 3 mps 762 mmHg 39%
    11:00 +33°C° 0 mm 3 mps 762 mmHg 39%
    12:00 +34°C° 0 mm 4 mps 762 mmHg 38%
    13:00 +34°C° 0 mm 4 mps 762 mmHg 38%
    14:00 +34°C° 0 mm 4 mps 762 mmHg 38%
    15:00 +34°C° 0 mm 4 mps 762 mmHg 38%
    16:00 +33°C° 0 mm 4 mps 762 mmHg 40%
    17:00 +32°C° 0 mm 4 mps 761 mmHg 43%
    18:00 +32°C° 0 mm 4 mps 761 mmHg 46%
    19:00 +30°C° 0 mm 3 mps 762 mmHg 48%
    20:00 +29°C° 0 mm 3 mps 762 mmHg 50%
    21:00 +28°C° 0 mm 2 mps 762 mmHg 52%
    22:00 +28°C° 0 mm 2 mps 762 mmHg 53%
    23:00 +27°C° 0 mm 2 mps 762 mmHg 53%
    Show more